Location: Unspecified
(0.0000°N, 0.0000°E)
Time: 19:52:45
(UTC+02:00)

Vanguard 1 Rocket - Visible Passes

Search period start: 24 April 2018 00:00
Search period end: 04 May 2018 00:00
Orbit: 654 x 4223 km, 34.3° (Epoch: 23 April)

Date Brightness Start Highest point End Pass type
(mag) Time Alt. Az. Time Alt. Az. Time Alt. Az.
24 Apr 11.7 01:55:12 15° ESE 01:55:12 15° ESE 01:59:20 10° E visible
24 Apr 10.5 04:12:31 66° SSE 04:14:04 67° SE 04:37:49 10° ENE visible
24 Apr 10.5 06:29:50 26° WSW 06:47:43 59° NW 07:06:17 10° NE visible
25 Apr 11.0 03:05:36 42° ESE 03:05:36 42° ESE 03:22:29 10° ENE visible
25 Apr 10.4 05:22:55 53° WSW 05:32:29 80° NW 05:54:18 10° NE visible
26 Apr 11.6 01:58:37 19° E 01:58:37 19° E 02:04:34 10° E visible
26 Apr 10.4 04:15:55 78° SSE 04:16:48 78° SE 04:41:07 10° ENE visible
26 Apr 10.7 06:33:13 24° W 06:50:31 50° NW 07:09:02 10° NNE visible
27 Apr11.400:51:33E00:51:33E00:11:22SSWvisible
27 Apr 10.8 03:08:51 48° E 03:08:51 48° E 03:26:18 10° ENE visible
27 Apr 10.5 05:26:08 51° W 05:35:09 69° NW 05:57:10 10° NE visible
28 Apr 11.5 02:01:42 22° E 02:01:42 22° E 02:09:14 10° E visible
28 Apr 10.3 04:18:59 88° SW 04:19:27 90° NW 04:44:11 10° NE visible
28 Apr 10.9 06:36:16 21° W 06:53:32 41° NW 07:11:45 10° NNE visible
29 Apr11.400:54:29E00:54:29E00:13:55SSWvisible
29 Apr 10.7 03:11:46 54° E 03:11:46 54° E 03:29:46 10° ENE visible
29 Apr 10.6 05:29:02 46° W 05:37:54 58° NW 05:59:55 10° NE visible
30 Apr 11.4 02:04:28 26° E 02:04:28 26° E 02:13:24 10° ENE visible
30 Apr 10.3 04:21:44 78° NW 04:22:07 78° NW 04:47:03 10° NE visible
30 Apr 11.1 06:39:00 17° W 06:56:51 35° NNW 07:14:28 10° NNE visible
01 May 10.7 03:14:22 58° ENE 03:14:22 58° ENE 03:32:55 10° NE visible
01 May 10.7 05:31:37 39° WNW 05:40:52 49° NW 06:02:35 10° NE visible
02 May 11.3 02:06:54 30° ENE 02:06:54 30° ENE 02:17:07 10° ENE visible
02 May 10.4 04:24:09 67° NW 04:24:53 67° NW 04:49:46 10° NE visible
02 May 11.2 06:41:25 12° W 07:00:32 29° NNW 07:17:16 10° NNE visible
03 May 10.6 03:16:38 61° NE 03:16:38 61° NE 03:35:49 10° NE visible
03 May 10.9 05:33:53 32° WNW 05:44:06 41° NNW 06:05:14 10° NNE visible
